Location: *
(50.3194°N, 7.1067°E)
Time: 15:15:47
(UTC+00:00)

SJ-11-01 - Pass Details

Date: 22 September 2019
Orbit: 684 x 702 km, 98.0° (Epoch: 21 October)

Event Time Altitude Azimuth Distance (km) Brightness Sun altitude
Exits shadow 18:58:40 - 168° (SSE) 2,856 7.2 -14.6°
Reaches altitude 10° 19:00:23 10° 169° (S) 2,163 6.5 -14.9°
Maximum altitude 19:05:07 80° 256° (WSW) 719 4.4 -15.6°
Drops below altitude 10° 19:09:54 10° 344° (NNW) 2,173 7.4 -16.3°
Sets 19:12:10 0° 346° (NNW) 3,093 8.2 -16.7°
